* Astronomy

Members Login
Username 
 
Password 
    Remember Me  
Post Info TOPIC: Asteroid 2011 XF


L

Posts: 131433
Date:
Asteroid 2011 XF
Permalink  
 


Orbital elements:
2011 XF                                                  Earth MOID = 0.2737 AU
Epoch 2011 Aug. 27.0 TT = JDT 2455800.5                 MPC
M 323.28257              (2000.0)            P               Q
n   0.30078571     Peri.  352.24525     +0.01450945     -0.99436302
a   2.2061308      Node    96.88031     +0.92297028     -0.02708435
e   0.4296235      Incl.    6.07289     +0.38459764     +0.10251157
P   3.28           H   22.7           G   0.15           U   8

MPEC 2011 - X17



__________________
Page 1 of 1  sorted by
 
Quick Reply

Please log in to post quick replies.



Create your own FREE Forum
Report Abuse
Powered by ActiveBoard